GW4671 Weather Reports


time (UTC)temp
C
wind
direction
speed
KPH
gust
KPH
rain 1hr
cm
rain 24hr
cm
rain mn
cm
humidity
%
barometer
mb
20260508144541 25 0 0.0 0.0 0.00 0.08 0.08 92 1012.5
20260508143105 25 0 0.0 0.0 0.00 0.08 0.08 92 1012.4
20260508141545 25 0 0.0 0.0 0.00 0.08 0.08 92 1012.3
20260508140059 25 0 0.0 3.2 0.00 0.08 0.08 92 1012.7
20260508134542 25 0 0.0 3.2 0.00 0.08 0.08 91 1012.4
20260508133044 25 333 0.0 6.4 0.00 0.08 0.08 91 1012.3
20260508131539 25 0 0.0 0.0 0.00 0.08 0.08 92 1012.1
20260508130039 25 0 0.0 0.0 0.00 0.08 0.08 91 1012.1
20260508124542 25 0 0.0 0.0 0.00 0.08 0.08 90 1012.0
20260508123043 25 0 0.0 0.0 0.00 0.08 0.08 91 1011.9
20260508121542 25 0 0.0 0.0 0.00 0.08 0.08 91 1012.0
20260508120045 25 0 0.0 0.0 0.00 0.08 0.08 91 1011.8
20260508114546 25 0 0.0 3.2 0.00 0.08 0.08 91 1011.5
20260508113045 25 0 0.0 3.2 0.00 0.08 0.08 91 1011.2
20260508111549 25 82 0.0 3.2 0.00 0.08 0.08 91 1010.7
20260508110047 26 82 0.0 3.2 0.00 0.08 0.08 91 1010.6
20260508104541 26 0 0.0 0.0 0.00 0.08 0.08 92 1010.4
20260508103052 26 82 0.0 3.2 0.00 0.08 0.08 91 1010.3
20260508101548 26 0 0.0 3.2 0.00 0.08 0.08 91 1010.1
20260508100044 27 82 0.0 3.2 0.00 0.08 0.08 90 1009.9
20260508094542 27 0 0.0 1.6 0.00 0.08 0.08 88 1009.7
20260508093045 27 0 0.0 3.2 0.00 0.08 0.08 88 1009.4
20260508091600 28 0 0.0 0.0 0.00 0.08 0.08 84 1009.2
20260508090047 28 0 0.0 1.6 0.00 0.08 0.08 86 1009.0
20260508084555 28 227 0.0 3.2 0.00 0.08 0.08 81 1008.5
20260508083053 28 244 0.0 3.2 0.00 0.08 0.08 81 1008.3
20260508081548 29 0 0.0 3.2 0.00 0.08 0.08 81 1008.3
20260508080100 28 0 0.0 1.6 0.00 0.08 0.08 86 1008.2
20260508074541 28 0 0.0 3.2 0.05 0.08 0.08 85 1008.2
20260508073051 28 0 0.0 6.4 0.08 0.08 0.08 84 1008.2
20260508071544 27 0 0.0 6.4 0.08 0.08 0.08 88 1008.2
20260508070054 26 76 0.0 6.4 0.08 0.08 0.08 87 1008.6
20260508064555 27 163 4.8 22.5 0.03 0.03 0.03 84 1008.6
20260508063048 31 116 1.6 4.8 0.00 0.00 0.00 74 1008.4
20260508061549 32 0 1.6 6.4 0.00 0.00 0.00 74 1008.2
20260508060047 32 352 0.0 9.7 0.00 0.00 0.00 71 1008.3
20260508054549 33 331 4.8 14.5 0.00 0.00 0.00 69 1008.5
20260508053050 32 294 4.8 9.7 0.00 0.00 0.00 68 1008.6
20260508051540 31 5 3.2 9.7 0.00 0.00 0.00 73 1008.7
20260508050101 31 296 3.2 9.7 0.00 0.00 0.00 72 1009.2
20260508044548 33 259 3.2 12.9 0.00 0.00 0.00 65 1009.1
20260508043040 32 234 1.6 9.7 0.00 0.00 0.00 68 1009.4
20260508041539 31 303 1.6 9.7 0.00 0.00 0.00 71 1009.7
20260508040053 32 257 1.6 6.4 0.00 0.00 0.00 70 1010.0
20260508034547 31 305 1.6 6.4 0.00 0.00 0.00 73 1010.2
20260508033042 31 305 1.6 4.8 0.00 0.00 0.00 76 1010.2
20260508031540 31 320 1.6 6.4 0.00 0.00 0.00 75 1010.3
20260508030039 31 30 1.6 4.8 0.00 0.00 0.00 74 1010.6
20260508024545 30 231 0.0 1.6 0.00 0.00 0.00 76 1010.8
20260508023045 30 0 0.0 1.6 0.00 0.00 0.00 77 1011.0
20260508021544 31 311 0.0 6.4 0.00 0.00 0.00 76 1011.1
20260508020040 30 5 3.2 6.4 0.00 0.00 0.00 78 1011.3
20260508014545 30 0 1.6 4.8 0.00 0.00 0.00 77 1011.5
20260508013046 29 0 0.0 6.4 0.00 0.00 0.00 80 1011.7
20260508011546 29 0 0.0 4.8 0.00 0.00 0.00 81 1011.8
20260508010043 30 0 0.0 6.4 0.00 0.00 0.00 78 1011.9
20260508004547 29 0 0.0 4.8 0.00 0.00 0.00 78 1011.8
20260508003050 30 260 0.0 6.4 0.00 0.00 0.00 79 1011.8
20260508001546 29 360 1.6 6.4 0.00 0.00 0.00 82 1011.8
20260508000044 28 319 1.6 6.4 0.00 0.00 0.00 83 1011.9
20260507234551 27 318 0.0 3.2 0.00 0.00 0.00 86 1011.9
20260507233053 27 288 0.0 3.2 0.00 0.00 0.00 87 1012.1
20260507231539 26 303 0.0 1.6 0.00 0.00 0.00 91 1012.1
20260507230049 25 0 0.0 4.8 0.00 0.00 0.00 93 1012.0
20260507224548 25 281 0.0 1.6 0.00 0.00 0.00 94 1011.9
20260507223056 24 280 0.0 3.2 0.00 0.00 0.00 95 1011.6
20260507221542 24 0 0.0 1.6 0.00 0.00 0.00 95 1011.5
20260507220040 23 0 0.0 3.2 0.00 0.00 0.00 95 1011.0
20260507214548 23 16 0.0 1.6 0.00 0.00 0.00 95 1010.8
20260507213045 23 0 0.0 3.2 0.00 0.00 0.00 95 1010.8
20260507211550 23 16 0.0 3.2 0.00 0.00 0.00 95 1010.8
20260507210106 23 16 0.0 1.6 0.00 0.00 0.00 95 1010.5
20260507204548 23 0 0.0 4.8 0.00 0.10 0.00 95 1010.3
20260507203045 23 0 0.0 0.0 0.00 0.10 0.00 95 1010.3
20260507201543 23 0 0.0 0.0 0.00 0.10 0.00 95 1010.2
20260507200052 23 0 0.0 0.0 0.00 0.10 0.00 95 1010.4
20260507194549 23 0 0.0 0.0 0.00 0.18 0.00 95 1010.3
20260507193041 23 0 0.0 0.0 0.00 0.18 0.00 95 1010.3
20260507191549 23 0 0.0 0.0 0.00 0.18 0.00 95 1010.3
20260507190053 23 0 0.0 0.0 0.00 0.18 0.00 95 1010.3
20260507184547 23 0 0.0 0.0 0.00 0.20 0.00 95 1010.3
20260507183053 23 0 0.0 0.0 0.00 0.20 0.00 95 1010.2
20260507181551 23 0 0.0 0.0 0.00 0.20 0.00 95 1010.3
20260507180038 24 0 0.0 3.2 0.00 0.20 0.00 95 1010.3
20260507174554 24 84 0.0 3.2 0.00 0.23 0.00 95 1010.4
20260507173048 23 0 0.0 1.6 0.00 0.23 0.00 95 1010.7
20260507171540 23 0 1.6 3.2 0.00 0.23 0.00 95 1010.4
20260507170047 24 96 0.0 1.6 0.00 0.23 0.00 94 1010.8
20260507164606 24 0 0.0 3.2 0.00 0.23 0.00 95 1011.0
20260507163052 24 58 0.0 3.2 0.00 0.23 0.00 95 1010.9
20260507161555 24 58 0.0 1.6 0.00 0.23 0.00 94 1011.1
20260507160039 24 47 0.0 4.8 0.00 0.23 0.00 94 1011.2
20260507154539 24 0 0.0 1.6 0.00 0.23 0.23 94 1011.4
20260507153042 24 0 0.0 3.2 0.00 0.23 0.23 94 1011.4
20260507151548 24 178 0.0 1.6 0.00 0.23 0.23 94 1011.4
20260507150046 24 0 0.0 6.4 0.00 0.23 0.23 94 1011.6